Flag for Qatar Weather past 2 weeks in Al Khor, Qatar

Now
95 °F

Sunny.


Feels Like: 91 °F
Forecast: 73 / 95 °F
Wind: 16 mph from North

Location: Doha International Airport

Current Time: Apr 27, 2015 at 4:46:34 PM

Latest Report: Apr 27, 2015 at 4:00 PM


Visibility: 10 mi

Pressure: 29.86 "Hg

Humidity: 14%

Dew point: 39 °F

Location of Al KhorLocation

Historic Weather in Al Khor — Graph

°F

Al Khor temperature yesterday

Maximum temperature yesterday: 90 °F (at 12:00 PM)
Minimum temperature yesterday: 73 °F (at 5:00 AM)
Average temperature yesterday: 81 °F

Past Weeks' High & Low Weather Summary

 TemperatureHumidityPressure
High109 °F (Apr 24, 1:00 PM)83% (Apr 15, 11:30 PM)30.04 "Hg (Apr 15, 11:30 PM)
Low72 °F (Apr 15, 1:00 AM)8% (Apr 24, 1:00 PM)27.13 "Hg (Apr 17, 4:30 AM)
Average83 °F35%29.88 "Hg
* Reported Apr 12 3:00 PM — Apr 27 3:00 PM, Al Khor, Weather by CustomWeather, © 2015

Note: Actual official high and low records may vary slightly from our data, if they occured in-between our weather recording intervals... More about our weather records

Advertising

Al Khor weather history for previous 24 hours

 ConditionsComfort  
Time TempWeatherWind HumidityBarometerVisibility
3:00 PM
Mon, Apr 27
97 °FSunny.15 mph13%29.86 "Hg10 mi
2:30 PM97 °FSunny.16 mph13%29.86 "Hg10 mi
2:00 PM97 °FSunny.16 mph18%29.89 "Hg10 mi
1:00 PM97 °FPassing clouds.14 mph14%29.89 "HgN/A
12:00 PM95 °FPassing clouds.14 mph16%29.92 "HgN/A
11:00 AM93 °FSunny.13 mph19%29.92 "Hg10 mi
10:00 AM90 °FSunny.13 mph24%29.95 "Hg10 mi
9:00 AM86 °FPassing clouds.13 mph29%29.95 "HgN/A
8:00 AM82 °FPassing clouds.13 mph35%29.92 "HgN/A
7:00 AM79 °FPassing clouds.14 mph39%29.92 "HgN/A
6:30 AM79 °FPassing clouds.13 mph42%29.92 "HgN/A
6:00 AM75 °FSunny.13 mph47%29.86 "Hg10 mi
5:30 AM75 °FSunny.13 mph44%29.83 "Hg10 mi
5:00 AM75 °FClear.13 mph44%29.83 "Hg10 mi
4:00 AM75 °FClear.13 mph44%29.83 "Hg10 mi
3:30 AM75 °FClear.13 mph44%29.83 "Hg10 mi
2:00 AM75 °FClear.13 mph41%29.83 "Hg10 mi
1:00 AM75 °FClear.14 mph44%29.83 "Hg10 mi
12:00 AM77 °FClear.14 mph39%29.86 "Hg10 mi
11:00 PM
Sun, Apr 26
77 °FClear.14 mph39%29.86 "Hg10 mi
10:30 PM77 °FPassing clouds.13 mph39%29.86 "HgN/A
10:00 PM77 °FClear.13 mph39%29.86 "Hg10 mi
9:30 PM79 °FPassing clouds.12 mph37%29.89 "HgN/A
9:00 PM79 °FPassing clouds.9 mph37%29.89 "HgN/A
8:30 PM79 °FPassing clouds.12 mph34%29.86 "HgN/A
8:00 PM81 °FPassing clouds.14 mph26%29.86 "HgN/A
7:00 PM82 °FClear.14 mph23%29.86 "Hg10 mi
6:00 PM84 °FSunny.13 mph22%29.86 "Hg10 mi
5:00 PM86 °FSunny.16 mph19%29.83 "Hg10 mi
4:00 PM90 °FPassing clouds.20 mph15%29.83 "HgN/A
Weather by CustomWeather, © 2015

See weather overviewHow to use our weather pages